,,,PA_Meas_PMT16A,,PR_Meas_QMR101_102,,RH_Meas_QMH101,,SR_Meas_QMS101,,TA_Meas_QMH101,,GenWind,,GenWind,
date,time,status,PA,status,PR,status,RH,status,SR,status,TA,status,DirAvg,status,SpdAvg,
2009-10-10, 00:00:04,VALID,1010.05,VALID,0,VALID,94.872,VALID,0.105969,VALID,24.9394,VALID,14,VALID,0.309375,
2009-10-10, 00:01:04,VALID,1010.01,VALID,0,VALID,94.8415,VALID,0,VALID,24.9413,VALID,14,VALID,0.393359,
2009-10-10, 00:02:04,VALID,1010.04,VALID,0,VALID,94.8415,VALID,0.105969,VALID,24.9394,VALID,14,VALID,0.238672,
2009-10-10, 00:03:04,VALID,1010.03,VALID,0,VALID,94.8568,VALID,0,VALID,24.9004,VALID,14,VALID,0.410547,
2009-10-10, 00:04:04,VALID,1010.03,VALID,0,VALID,94.8796,VALID,0.105969,VALID,24.9199,VALID,14,VALID,0,
2009-10-10, 00:05:04,VALID,1010.04,VALID,0,VALID,94.872,VALID,0.105969,VALID,24.9004,VALID,14,VALID,0,
2009-10-10, 00:06:04,VALID,1010.04,VALID,0,VALID,94.8949,VALID,0.105969,VALID,24.9023,VALID,15,VALID,0,
2009-10-10, 00:07:04,VALID,1010.06,VALID,0,VALID,94.9254,VALID,0.105969,VALID,24.8615,VALID,19,VALID,0,
2009-10-10, 00:08:04,VALID,1010.07,VALID,0,VALID,94.9406,VALID,0.105969,VALID,24.842,VALID,23,VALID,0.456641,
2009-10-10, 00:09:04,VALID,1010.03,VALID,0,VALID,94.9483,VALID,0,VALID,24.8225,VALID,23,VALID,0.446875,
2009-10-10, 00:10:04,VALID,1010.04,VALID,0,VALID,95.0016,VALID,0,VALID,24.8049,VALID,23,VALID,0.20625,
2009-10-10, 00:11:05,VALID,1010.01,VALID,0,VALID,94.9864,VALID,0,VALID,24.7835,VALID,23,VALID,0.349609,
2009-10-10, 00:12:05,VALID,1009.96,VALID,0,VALID,95.0321,VALID,0.105969,VALID,24.7835,VALID,23,VALID,0.000390625,
2009-10-10, 00:13:04,VALID,1009.93,VALID,0,VALID,95.0474,VALID,0,VALID,24.7854,VALID,23,VALID,0,
2009-10-10, 00:14:05,VALID,1009.89,VALID,0,VALID,95.0626,VALID,0,VALID,24.7854,VALID,23,VALID,0,
2009-10-10, 00:15:05,VALID,1009.9,VALID,0,VALID,95.1008,VALID,0,VALID,24.7854,VALID,23,VALID,0,
2009-10-10, 00:16:05,VALID,1009.86,VALID,0,VALID,95.116,VALID,0.105969,VALID,24.7854,VALID,23,VALID,0,
2009-10-10, 00:17:05,VALID,1009.88,VALID,0,VALID,95.1313,VALID,0.105969,VALID,24.764,VALID,23,VALID,0,
2009-10-10, 00:18:05,VALID,1009.89,VALID,0,VALID,95.1542,VALID,0,VALID,24.7445,VALID,23,VALID,0,
2009-10-10, 00:19:05,VALID,1009.86,VALID,0,VALID,95.1542,VALID,0,VALID,24.7854,VALID,23,VALID,0,
2009-10-10, 00:20:05,VALID,1009.87,VALID,0,VALID,95.1847,VALID,0.105969,VALID,24.7854,VALID,23,VALID,0,
2009-10-10, 00:21:05,VALID,1009.87,VALID,0,VALID,95.1999,VALID,0,VALID,24.7854,VALID,23,VALID,0,
2009-10-10, 00:22:05,VALID,1009.89,VALID,0,VALID,95.238,VALID,0.105969,VALID,24.764,VALID,23,VALID,0,
2009-10-10, 00:23:05,VALID,1009.89,VALID,0,VALID,95.2304,VALID,0,VALID,24.7659,VALID,23,VALID,0,
2009-10-10, 00:24:05,VALID,1009.9,VALID,0,VALID,95.2457,VALID,0,VALID,24.725,VALID,23,VALID,0,
2009-10-10, 00:25:05,VALID,1009.86,VALID,0,VALID,95.2685,VALID,0,VALID,24.725,VALID,23,VALID,0,
2009-10-10, 00:26:05,VALID,1009.85,VALID,0,VALID,95.2457,VALID,0.105969,VALID,24.725,VALID,23,VALID,0,
2009-10-10, 00:27:05,VALID,1009.82,VALID,0,VALID,95.2762,VALID,0.105969,VALID,24.7464,VALID,23,VALID,0,
2009-10-10, 00:28:05,VALID,1009.84,VALID,0,VALID,95.2838,VALID,0,VALID,24.7055,VALID,23,VALID,0,
2009-10-10, 00:29:05,VALID,1009.82,VALID,0,VALID,95.3067,VALID,0.105969,VALID,24.7269,VALID,23,VALID,0,
2009-10-10, 00:30:05,VALID,1009.82,VALID,0,VALID,95.3524,VALID,0.105969,VALID,24.7269,VALID,23,VALID,0,
2009-10-10, 00:31:05,VALID,1009.83,VALID,0,VALID,95.36,VALID,0,VALID,24.686,VALID,23,VALID,0.339063,
2009-10-10, 00:32:05,VALID,1009.8,VALID,0,VALID,95.3448,VALID,0,VALID,24.6666,VALID,23,VALID,0.307813,
2009-10-10, 00:33:05,VALID,1009.77,VALID,0,VALID,95.36,VALID,0,VALID,24.6471,VALID,23,VALID,0.28125,
2009-10-10, 00:34:05,VALID,1009.78,VALID,0,VALID,95.3829,VALID,0.105969,VALID,24.6276,VALID,23,VALID,0.178906,
2009-10-10, 00:35:05,VALID,1009.76,VALID,0,VALID,95.3829,VALID,0.105969,VALID,24.6276,VALID,23,VALID,0.0808594,
2009-10-10, 00:36:05,VALID,1009.75,VALID,0,VALID,95.3905,VALID,0,VALID,24.6489,VALID,23,VALID,0,
2009-10-10, 00:37:05,VALID,1009.69,VALID,0,VALID,95.3905,VALID,0.105969,VALID,24.6081,VALID,23,VALID,0,
2009-10-10, 00:38:05,VALID,1009.66,VALID,0,VALID,95.4211,VALID,0,VALID,24.6081,VALID,23,VALID,0,
2009-10-10, 00:39:05,VALID,1009.64,VALID,0,VALID,95.4134,VALID,0,VALID,24.5886,VALID,23,VALID,0,
2009-10-10, 00:40:05,VALID,1009.65,VALID,0,VALID,95.4211,VALID,0.105969,VALID,24.5691,VALID,23,VALID,0,
2009-10-10, 00:41:05,VALID,1009.62,VALID,0,VALID,95.4363,VALID,0.105969,VALID,24.5691,VALID,23,VALID,0.0046875,
2009-10-10, 00:42:05,VALID,1009.64,VALID,0,VALID,95.4439,VALID,0,VALID,24.571,VALID,23,VALID,0.178125,
2009-10-10, 00:43:05,VALID,1009.63,VALID,0,VALID,95.4592,VALID,0,VALID,24.5515,VALID,23,VALID,0.182812,
2009-10-10, 00:44:05,VALID,1009.63,VALID,0,VALID,95.4821,VALID,0.105969,VALID,24.532,VALID,23,VALID,0.224219,
2009-10-10, 00:45:05,VALID,1009.64,VALID,0,VALID,95.4821,VALID,0,VALID,24.5106,VALID,23,VALID,0,
2009-10-10, 00:46:05,VALID,1009.63,VALID,0,VALID,95.5049,VALID,0.105969,VALID,24.532,VALID,23,VALID,0,
2009-10-10, 00:47:05,VALID,1009.61,VALID,0,VALID,95.5202,VALID,0,VALID,24.4911,VALID,23,VALID,0,
2009-10-10, 00:48:05,VALID,1009.59,VALID,0,VALID,95.5278,VALID,0,VALID,24.5125,VALID,23,VALID,0,
2009-10-10, 00:49:05,VALID,1009.57,VALID,0,VALID,95.5431,VALID,0,VALID,24.493,VALID,23,VALID,0,
2009-10-10, 00:50:05,VALID,1009.58,VALID,0,VALID,95.5431,VALID,0.105969,VALID,24.4911,VALID,23,VALID,0,
2009-10-10, 00:51:05,VALID,1009.58,VALID,0,VALID,95.5659,VALID,0.105969,VALID,24.4911,VALID,23,VALID,0,
2009-10-10, 00:52:05,VALID,1009.58,VALID,0,VALID,95.5583,VALID,0,VALID,24.493,VALID,23,VALID,0,
2009-10-10, 00:53:05,VALID,1009.59,VALID,0,VALID,95.5659,VALID,0,VALID,24.4735,VALID,23,VALID,0,
2009-10-10, 00:54:05,VALID,1009.58,VALID,0,VALID,95.5812,VALID,0.105969,VALID,24.4308,VALID,23,VALID,0,
2009-10-10, 00:55:05,VALID,1009.59,VALID,0,VALID,95.6041,VALID,0.105969,VALID,24.4522,VALID,23,VALID,0,
2009-10-10, 00:56:05,VALID,1009.58,VALID,0,VALID,95.6041,VALID,0,VALID,24.454,VALID,23,VALID,0,
2009-10-10, 00:57:05,VALID,1009.56,VALID,0,VALID,95.5964,VALID,0.105969,VALID,24.4327,VALID,23,VALID,0,
2009-10-10, 00:58:05,VALID,1009.53,VALID,0,VALID,95.5964,VALID,0.105969,VALID,24.4522,VALID,23,VALID,0,
2009-10-10, 00:59:05,VALID,1009.52,VALID,0,VALID,95.6117,VALID,0.105969,VALID,24.4327,VALID,23,VALID,0,
2009-10-10, 01:00:05,VALID,1009.49,VALID,0,VALID,95.5964,VALID,0,VALID,24.454,VALID,23,VALID,0,
2009-10-10, 01:01:05,VALID,1009.49,VALID,0,VALID,95.6346,VALID,0,VALID,24.4327,VALID,23,VALID,0,
2009-10-10, 01:02:05,VALID,1009.48,VALID,0,VALID,95.6422,VALID,0.105969,VALID,24.454,VALID,23,VALID,0,
2009-10-10, 01:03:05,VALID,1009.47,VALID,0,VALID,95.6346,VALID,0.105969,VALID,24.4327,VALID,23,VALID,0,
2009-10-10, 01:04:05,VALID,1009.49,VALID,0,VALID,95.6574,VALID,0.105969,VALID,24.4327,VALID,23,VALID,0,
2009-10-10, 01:05:05,VALID,1009.44,VALID,0,VALID,95.6498,VALID,0,VALID,24.454,VALID,23,VALID,0,
2009-10-10, 01:06:05,VALID,1009.45,VALID,0,VALID,95.6574,VALID,0.105969,VALID,24.454,VALID,23,VALID,0,
2009-10-10, 01:07:05,VALID,1009.41,VALID,0,VALID,95.6651,VALID,0,VALID,24.4327,VALID,23,VALID,0,
2009-10-10, 01:08:05,VALID,1009.41,VALID,0,VALID,95.688,VALID,0,VALID,24.4327,VALID,23,VALID,0,
2009-10-10, 01:09:05,VALID,1009.39,VALID,0,VALID,95.6803,VALID,0.105969,VALID,24.4132,VALID,23,VALID,0,
2009-10-10, 01:10:05,VALID,1009.38,VALID,0,VALID,95.6727,VALID,0.105969,VALID,24.4345,VALID,23,VALID,0,
2009-10-10, 01:11:05,VALID,1009.36,VALID,0,VALID,95.6727,VALID,0.105969,VALID,24.4132,VALID,23,VALID,0,
2009-10-10, 01:12:05,VALID,1009.33,VALID,0,VALID,95.688,VALID,0.105969,VALID,24.4132,VALID,23,VALID,0,
2009-10-10, 01:13:05,VALID,1009.32,VALID,0,VALID,95.6803,VALID,0.105969,VALID,24.4345,VALID,23,VALID,0,
2009-10-10, 01:14:05,VALID,1009.29,VALID,0,VALID,95.6727,VALID,0.105969,VALID,24.3937,VALID,23,VALID,0,
2009-10-10, 01:15:05,VALID,1009.26,VALID,0,VALID,95.6956,VALID,0.105969,VALID,24.3937,VALID,23,VALID,0,
2009-10-10, 01:16:05,VALID,1009.25,VALID,0,VALID,95.6956,VALID,0.105969,VALID,24.3937,VALID,23,VALID,0,
2009-10-10, 01:17:05,VALID,1009.23,VALID,0,VALID,95.7032,VALID,0,VALID,24.3937,VALID,23,VALID,0,
2009-10-10, 01:18:05,VALID,1009.26,VALID,0,VALID,95.7032,VALID,0.105969,VALID,24.3937,VALID,23,VALID,0,
2009-10-10, 01:19:05,VALID,1009.24,VALID,0,VALID,95.7108,VALID,0,VALID,24.3956,VALID,23,VALID,0,
2009-10-10, 01:20:05,VALID,1009.25,VALID,0,VALID,95.7108,VALID,0,VALID,24.415,VALID,23,VALID,0,
2009-10-10, 01:21:05,VALID,1009.26,VALID,0,VALID,95.7185,VALID,0,VALID,24.3742,VALID,23,VALID,0,
2009-10-10, 01:22:05,VALID,1009.28,VALID,0,VALID,95.7185,VALID,0.105969,VALID,24.3742,VALID,23,VALID,0,
2009-10-10, 01:23:05,VALID,1009.27,VALID,0,VALID,95.7261,VALID,0,VALID,24.3742,VALID,23,VALID,0,
2009-10-10, 01:24:05,VALID,1009.28,VALID,0,VALID,95.7337,VALID,0,VALID,24.3742,VALID,23,VALID,0,
2009-10-10, 01:25:05,VALID,1009.3,VALID,0,VALID,95.7337,VALID,0.105969,VALID,24.3742,VALID,23,VALID,0,
2009-10-10, 01:26:05,VALID,1009.3,VALID,0,VALID,95.749,VALID,0,VALID,24.3547,VALID,23,VALID,0,
2009-10-10, 01:27:05,VALID,1009.29,VALID,0,VALID,95.7337,VALID,0.105969,VALID,24.3547,VALID,23,VALID,0,
2009-10-10, 01:28:05,VALID,1009.32,VALID,0,VALID,95.749,VALID,0.105969,VALID,24.3761,VALID,23,VALID,0,
2009-10-10, 01:29:05,VALID,1009.31,VALID,0,VALID,95.749,VALID,0,VALID,24.3761,VALID,23,VALID,0,
2009-10-10, 01:30:05,VALID,1009.31,VALID,0,VALID,95.7566,VALID,0,VALID,24.3566,VALID,23,VALID,0,
2009-10-10, 01:31:05,VALID,1009.28,VALID,0,VALID,95.7795,VALID,0,VALID,24.3566,VALID,23,VALID,0,
2009-10-10, 01:32:05,VALID,1009.32,VALID,0,VALID,95.7642,VALID,0,VALID,24.3352,VALID,23,VALID,0,
2009-10-10, 01:33:05,VALID,1009.26,VALID,0,VALID,95.7642,VALID,0,VALID,24.3566,VALID,23,VALID,0,
2009-10-10, 01:34:05,VALID,1009.27,VALID,0,VALID,95.7718,VALID,0.105969,VALID,24.3566,VALID,23,VALID,0,
2009-10-10, 01:35:05,VALID,1009.26,VALID,0,VALID,95.7718,VALID,0.105969,VALID,24.3547,VALID,23,VALID,0,
2009-10-10, 01:36:05,VALID,1009.24,VALID,0,VALID,95.7642,VALID,0.105969,VALID,24.3547,VALID,23,VALID,0,
2009-10-10, 01:37:05,VALID,1009.24,VALID,0,VALID,95.7795,VALID,0,VALID,24.3352,VALID,23,VALID,0,
2009-10-10, 01:38:05,VALID,1009.22,VALID,0,VALID,95.7566,VALID,0.105969,VALID,24.3547,VALID,23,VALID,0,
2009-10-10, 01:39:05,VALID,1009.23,VALID,0,VALID,95.7795,VALID,0,VALID,24.3547,VALID,23,VALID,0,
2009-10-10, 01:40:05,VALID,1009.22,VALID,0,VALID,95.7871,VALID,0,VALID,24.3566,VALID,23,VALID,0,
2009-10-10, 01:41:05,VALID,1009.22,VALID,0,VALID,95.7871,VALID,0,VALID,24.3352,VALID,23,VALID,0,
2009-10-10, 01:42:05,VALID,1009.21,VALID,0,VALID,95.7795,VALID,0,VALID,24.3566,VALID,23,VALID,0,
2009-10-10, 01:43:05,VALID,1009.19,VALID,0,VALID,95.7871,VALID,0.105969,VALID,24.3547,VALID,23,VALID,0,
2009-10-10, 01:44:05,VALID,1009.19,VALID,0,VALID,95.7871,VALID,0,VALID,24.3566,VALID,23,VALID,0,
2009-10-10, 01:45:05,VALID,1009.18,VALID,0,VALID,95.81,VALID,0,VALID,24.3566,VALID,23,VALID,0,
2009-10-10, 01:46:05,VALID,1009.15,VALID,0,VALID,95.8023,VALID,0,VALID,24.3352,VALID,23,VALID,0,
2009-10-10, 01:47:05,VALID,1009.14,VALID,0,VALID,95.8176,VALID,0,VALID,24.3176,VALID,23,VALID,0,
2009-10-10, 01:48:05,VALID,1009.13,VALID,0,VALID,95.8176,VALID,0.105969,VALID,24.2963,VALID,23,VALID,0,
2009-10-10, 01:49:05,VALID,1009.13,VALID,0,VALID,95.81,VALID,0,VALID,24.2981,VALID,23,VALID,0,
2009-10-10, 01:50:05,VALID,1009.11,VALID,0,VALID,95.7947,VALID,0.105969,VALID,24.2768,VALID,23,VALID,0,
2009-10-10, 01:51:05,VALID,1009.1,VALID,0,VALID,95.8023,VALID,0,VALID,24.2786,VALID,23,VALID,0,
2009-10-10, 01:52:05,VALID,1009.07,VALID,0,VALID,95.8176,VALID,0,VALID,24.2786,VALID,23,VALID,0,
2009-10-10, 01:53:05,VALID,1009.08,VALID,0,VALID,95.8023,VALID,0,VALID,24.2591,VALID,23,VALID,0,
2009-10-10, 01:54:05,VALID,1009.08,VALID,0,VALID,95.8252,VALID,0,VALID,24.2573,VALID,23,VALID,0,
2009-10-10, 01:55:05,VALID,1009.05,VALID,0,VALID,95.81,VALID,0,VALID,24.2396,VALID,23,VALID,0,
2009-10-10, 01:56:05,VALID,1009.08,VALID,0,VALID,95.8176,VALID,0,VALID,24.2396,VALID,23,VALID,0,
2009-10-10, 01:57:05,VALID,1009.05,VALID,0,VALID,95.8176,VALID,0,VALID,24.2591,VALID,23,VALID,0,
2009-10-10, 01:58:05,VALID,1009.07,VALID,0,VALID,95.8176,VALID,0,VALID,24.2183,VALID,23,VALID,0,
2009-10-10, 01:59:05,VALID,1009.07,VALID,0,VALID,95.8252,VALID,0,VALID,24.2183,VALID,23,VALID,0,
2009-10-10, 02:00:05,VALID,1009.12,VALID,0,VALID,95.8023,VALID,0,VALID,24.2202,VALID,23,VALID,0,
2009-10-10, 02:01:05,VALID,1009.15,VALID,0,VALID,95.8328,VALID,0,VALID,24.2202,VALID,23,VALID,0,
2009-10-10, 02:02:05,VALID,1009.17,VALID,0,VALID,95.8252,VALID,0,VALID,24.1988,VALID,23,VALID,0,
2009-10-10, 02:03:05,VALID,1009.22,VALID,0,VALID,95.8252,VALID,0.105969,VALID,24.2202,VALID,23,VALID,0,
2009-10-10, 02:04:05,VALID,1009.21,VALID,0,VALID,95.8252,VALID,0,VALID,24.2202,VALID,23,VALID,0,
2009-10-10, 02:05:05,VALID,1009.21,VALID,0,VALID,95.8252,VALID,0,VALID,24.2396,VALID,23,VALID,0,
2009-10-10, 02:06:05,VALID,1009.21,VALID,0,VALID,95.8176,VALID,0,VALID,24.2378,VALID,23,VALID,0,
2009-10-10, 02:07:05,VALID,1009.2,VALID,0,VALID,95.8176,VALID,0.105969,VALID,24.2573,VALID,23,VALID,0,
2009-10-10, 02:08:05,VALID,1009.2,VALID,0,VALID,95.8481,VALID,0,VALID,24.2786,VALID,23,VALID,0,
2009-10-10, 02:09:05,VALID,1009.22,VALID,0,VALID,95.8328,VALID,0,VALID,24.2573,VALID,23,VALID,0,
2009-10-10, 02:10:05,VALID,1009.22,VALID,0,VALID,95.8405,VALID,0,VALID,24.2981,VALID,23,VALID,0,
2009-10-10, 02:11:05,VALID,1009.21,VALID,0,VALID,95.871,VALID,0,VALID,24.2981,VALID,23,VALID,0,
2009-10-10, 02:12:05,VALID,1009.23,VALID,0,VALID,95.8633,VALID,0.105969,VALID,24.2768,VALID,23,VALID,0,
2009-10-10, 02:13:05,VALID,1009.25,VALID,0,VALID,95.871,VALID,0,VALID,24.2981,VALID,23,VALID,0,
2009-10-10, 02:14:05,VALID,1009.21,VALID,0,VALID,95.8557,VALID,0.105969,VALID,24.2768,VALID,23,VALID,0,
2009-10-10, 02:15:05,VALID,1009.18,VALID,0,VALID,95.8633,VALID,0,VALID,24.2981,VALID,23,VALID,0,
2009-10-10, 02:16:05,VALID,1009.17,VALID,0,VALID,95.871,VALID,0.105969,VALID,24.2768,VALID,23,VALID,0,
2009-10-10, 02:17:05,VALID,1009.14,VALID,0,VALID,95.8633,VALID,0,VALID,24.2573,VALID,23,VALID,0,
2009-10-10, 02:18:05,VALID,1009.13,VALID,0,VALID,95.8786,VALID,0.105969,VALID,24.2573,VALID,23,VALID,0,
2009-10-10, 02:19:05,VALID,1009.09,VALID,0,VALID,95.8786,VALID,0,VALID,24.2378,VALID,23,VALID,0,
2009-10-10, 02:20:05,VALID,1009.09,VALID,0,VALID,95.8633,VALID,0,VALID,24.2396,VALID,23,VALID,0,
2009-10-10, 02:21:05,VALID,1009.08,VALID,0,VALID,95.8633,VALID,0,VALID,24.1988,VALID,23,VALID,0,
2009-10-10, 02:22:05,VALID,1009.05,VALID,0,VALID,95.871,VALID,0.105969,VALID,24.1988,VALID,23,VALID,0,
2009-10-10, 02:23:05,VALID,1009.02,VALID,0,VALID,95.8786,VALID,0,VALID,24.2202,VALID,23,VALID,0,
2009-10-10, 02:24:05,VALID,1009.01,VALID,0,VALID,95.8939,VALID,0.105969,VALID,24.1988,VALID,23,VALID,0,
2009-10-10, 02:25:05,VALID,1009,VALID,0,VALID,95.8862,VALID,0.105969,VALID,24.1793,VALID,23,VALID,0,
2009-10-10, 02:26:05,VALID,1009.03,VALID,0,VALID,95.8939,VALID,0,VALID,24.1599,VALID,23,VALID,0,
2009-10-10, 02:27:05,VALID,1009,VALID,0,VALID,95.8786,VALID,0,VALID,24.1599,VALID,23,VALID,0,
2009-10-10, 02:28:05,VALID,1009.04,VALID,0,VALID,95.8862,VALID,0,VALID,24.1599,VALID,23,VALID,0,
2009-10-10, 02:29:05,VALID,1009.07,VALID,0,VALID,95.8939,VALID,0,VALID,24.1599,VALID,23,VALID,0,
2009-10-10, 02:30:05,VALID,1009.05,VALID,0,VALID,95.9167,VALID,0,VALID,24.1617,VALID,23,VALID,0,
2009-10-10, 02:31:05,VALID,1009.05,VALID,0,VALID,95.9244,VALID,0.105969,VALID,24.1209,VALID,23,VALID,0,
2009-10-10, 02:32:05,VALID,1009.08,VALID,0,VALID,95.9396,VALID,0,VALID,24.1014,VALID,23,VALID,0,
2009-10-10, 02:33:05,VALID,1009.09,VALID,0,VALID,95.9091,VALID,0,VALID,24.1209,VALID,23,VALID,0,
2009-10-10, 02:34:05,VALID,1009.1,VALID,0,VALID,95.9244,VALID,0,VALID,24.1422,VALID,23,VALID,0,
2009-10-10, 02:35:05,VALID,1009.12,VALID,0,VALID,95.9167,VALID,0,VALID,24.1014,VALID,23,VALID,0,
2009-10-10, 02:36:05,VALID,1009.19,VALID,0,VALID,95.9091,VALID,0,VALID,24.1014,VALID,23,VALID,0,
2009-10-10, 02:37:05,VALID,1009.24,VALID,0,VALID,95.9396,VALID,0.105969,VALID,24.1014,VALID,23,VALID,0,
2009-10-10, 02:38:05,VALID,1009.24,VALID,0,VALID,95.9167,VALID,0.105969,VALID,24.1209,VALID,16,VALID,0,
2009-10-10, 02:39:05,VALID,1009.27,VALID,0,VALID,95.9091,VALID,0,VALID,24.1422,VALID,1,VALID,0,
2009-10-10, 02:40:05,VALID,1009.27,VALID,0,VALID,95.9244,VALID,0,VALID,24.1422,VALID,1,VALID,0,
2009-10-10, 02:41:05,VALID,1009.28,VALID,0,VALID,95.9396,VALID,0,VALID,24.1635,VALID,1,VALID,0,
2009-10-10, 02:42:05,VALID,1009.27,VALID,0,VALID,95.9396,VALID,0,VALID,24.144,VALID,1,VALID,0,
2009-10-10, 02:43:05,VALID,1009.26,VALID,0,VALID,95.9472,VALID,0,VALID,24.144,VALID,1,VALID,0,
2009-10-10, 02:44:05,VALID,1009.23,VALID,0,VALID,95.9777,VALID,0,VALID,24.144,VALID,1,VALID,0,
2009-10-10, 02:45:05,VALID,1009.22,VALID,0,VALID,95.9472,VALID,0,VALID,24.1245,VALID,1,VALID,0,
2009-10-10, 02:46:05,VALID,1009.18,VALID,0,VALID,95.9625,VALID,0,VALID,24.0837,VALID,1,VALID,0,
2009-10-10, 02:47:05,VALID,1009.17,VALID,0,VALID,95.9701,VALID,0,VALID,24.0837,VALID,1,VALID,0,
2009-10-10, 02:48:05,VALID,1009.15,VALID,0,VALID,95.9625,VALID,0,VALID,24.0856,VALID,1,VALID,0,
2009-10-10, 02:49:05,VALID,1009.16,VALID,0,VALID,96.0082,VALID,0,VALID,24.0448,VALID,1,VALID,0,
2009-10-10, 02:50:05,VALID,1009.12,VALID,0,VALID,95.9701,VALID,0,VALID,24.0253,VALID,1,VALID,0,
2009-10-10, 02:51:05,VALID,1009.14,VALID,0,VALID,95.993,VALID,0,VALID,24.0271,VALID,1,VALID,0,
2009-10-10, 02:52:05,VALID,1009.12,VALID,0,VALID,95.993,VALID,0,VALID,24.0271,VALID,1,VALID,0,
2009-10-10, 02:53:05,VALID,1009.12,VALID,0,VALID,96.0082,VALID,0,VALID,24.0076,VALID,1,VALID,0,
2009-10-10, 02:54:05,VALID,1009.09,VALID,0,VALID,95.9854,VALID,0,VALID,23.9845,VALID,1,VALID,0,
2009-10-10, 02:55:05,VALID,1009.11,VALID,0,VALID,95.9854,VALID,0,VALID,23.9863,VALID,1,VALID,0,
2009-10-10, 02:56:04,VALID,1009.12,VALID,0,VALID,95.993,VALID,0,VALID,23.965,VALID,1,VALID,0,
2009-10-10, 02:57:04,VALID,1009.13,VALID,0,VALID,95.993,VALID,0,VALID,23.9863,VALID,1,VALID,0,
2009-10-10, 02:58:04,VALID,1009.14,VALID,0,VALID,95.993,VALID,0,VALID,23.9668,VALID,1,VALID,0,
2009-10-10, 02:59:04,VALID,1009.13,VALID,0,VALID,95.9625,VALID,0.105969,VALID,23.9455,VALID,1,VALID,0,
2009-10-10, 03:00:04,VALID,1009.15,VALID,0,VALID,95.9701,VALID,0,VALID,23.9455,VALID,1,VALID,0,
2009-10-10, 03:01:04,VALID,1009.18,VALID,0,VALID,95.993,VALID,0,VALID,23.9668,VALID,1,VALID,0,
2009-10-10, 03:02:04,VALID,1009.17,VALID,0,VALID,96.0006,VALID,0,VALID,23.9668,VALID,1,VALID,0,
2009-10-10, 03:03:04,VALID,1009.18,VALID,0,VALID,95.9854,VALID,0,VALID,23.9668,VALID,1,VALID,0,
2009-10-10, 03:04:04,VALID,1009.18,VALID,0,VALID,95.9854,VALID,0.105969,VALID,23.926,VALID,1,VALID,0,
2009-10-10, 03:05:04,VALID,1009.17,VALID,0,VALID,96.0082,VALID,0,VALID,23.9473,VALID,1,VALID,0,
2009-10-10, 03:06:04,VALID,1009.13,VALID,0,VALID,96.0159,VALID,0,VALID,23.9473,VALID,1,VALID,0,
2009-10-10, 03:07:04,VALID,1009.1,VALID,0,VALID,96.0006,VALID,0,VALID,23.9668,VALID,1,VALID,0,
2009-10-10, 03:08:04,VALID,1009.09,VALID,0,VALID,95.993,VALID,0,VALID,23.9455,VALID,1,VALID,0,
2009-10-10, 03:09:04,VALID,1009.09,VALID,0,VALID,96.0159,VALID,0,VALID,23.9668,VALID,1,VALID,0,
2009-10-10, 03:10:04,VALID,1009.05,VALID,0,VALID,96.0006,VALID,0,VALID,23.9668,VALID,1,VALID,0,
2009-10-10, 03:11:04,VALID,1009.03,VALID,0,VALID,96.0082,VALID,0,VALID,23.9455,VALID,1,VALID,0,
2009-10-10, 03:12:04,VALID,1009.04,VALID,0,VALID,95.993,VALID,0.105969,VALID,23.9455,VALID,1,VALID,0,
2009-10-10, 03:13:04,VALID,1009.02,VALID,0,VALID,96.0235,VALID,0.105969,VALID,23.9455,VALID,1,VALID,0,
2009-10-10, 03:14:04,VALID,1009.04,VALID,0,VALID,96.0235,VALID,0,VALID,23.9473,VALID,1,VALID,0,
2009-10-10, 03:15:04,VALID,1009.05,VALID,0,VALID,96.0311,VALID,0,VALID,23.9473,VALID,1,VALID,0,
2009-10-10, 03:16:04,VALID,1009.06,VALID,0,VALID,96.054,VALID,0,VALID,23.9084,VALID,1,VALID,0,
2009-10-10, 03:17:04,VALID,1009.06,VALID,0,VALID,96.0616,VALID,0,VALID,23.8889,VALID,1,VALID,0,
2009-10-10, 03:18:04,VALID,1009.07,VALID,0,VALID,96.0464,VALID,0,VALID,23.8871,VALID,1,VALID,0,
2009-10-10, 03:19:04,VALID,1009.09,VALID,0,VALID,96.054,VALID,0,VALID,23.9084,VALID,1,VALID,0,
2009-10-10, 03:20:04,VALID,1009.09,VALID,0,VALID,96.054,VALID,0,VALID,23.8889,VALID,1,VALID,0,
2009-10-10, 03:21:04,VALID,1009.08,VALID,0,VALID,96.0311,VALID,0,VALID,23.8871,VALID,1,VALID,0,
2009-10-10, 03:22:04,VALID,1009.11,VALID,0,VALID,96.0159,VALID,0,VALID,23.926,VALID,1,VALID,0,
2009-10-10, 03:23:04,VALID,1009.13,VALID,0,VALID,96.0235,VALID,0,VALID,23.9668,VALID,1,VALID,0,
2009-10-10, 03:24:04,VALID,1009.14,VALID,0,VALID,96.0311,VALID,0.105969,VALID,23.9863,VALID,348,VALID,0,
2009-10-10, 03:25:04,VALID,1009.18,VALID,0,VALID,96.054,VALID,0.105969,VALID,23.9668,VALID,348,VALID,0,
2009-10-10, 03:26:04,VALID,1009.23,VALID,0,VALID,96.054,VALID,0,VALID,23.9455,VALID,348,VALID,0,
2009-10-10, 03:27:04,VALID,1009.25,VALID,0,VALID,96.0387,VALID,0.105969,VALID,23.965,VALID,348,VALID,0,
2009-10-10, 03:28:04,VALID,1009.28,VALID,0,VALID,96.054,VALID,0.105969,VALID,23.965,VALID,348,VALID,0,
2009-10-10, 03:29:04,VALID,1009.33,VALID,0,VALID,96.0616,VALID,0,VALID,23.965,VALID,348,VALID,0,
2009-10-10, 03:30:04,VALID,1009.34,VALID,0,VALID,96.0387,VALID,0.105969,VALID,23.965,VALID,329,VALID,0.670313,
2009-10-10, 03:31:04,VALID,1009.37,VALID,0,VALID,96.0387,VALID,0.105969,VALID,23.9845,VALID,323,VALID,0.660547,
2009-10-10, 03:32:04,VALID,1009.41,VALID,0,VALID,96.0311,VALID,0,VALID,23.9845,VALID,302,VALID,0.6625,
2009-10-10, 03:33:04,VALID,1009.41,VALID,0,VALID,96.0159,VALID,0,VALID,24.004,VALID,288,VALID,0.721094,
2009-10-10, 03:34:04,VALID,1009.44,VALID,0,VALID,96.0082,VALID,0,VALID,24.0235,VALID,306,VALID,0.467187,
2009-10-10, 03:35:04,VALID,1009.42,VALID,0,VALID,96.0006,VALID,0,VALID,24.0624,VALID,305,VALID,0.256641,
2009-10-10, 03:36:04,VALID,1009.41,VALID,0,VALID,96.0006,VALID,0,VALID,24.0819,VALID,293,VALID,0.156641,
2009-10-10, 03:37:04,VALID,1009.41,VALID,0,VALID,96.0311,VALID,0,VALID,24.0819,VALID,293,VALID,0.0773437,
2009-10-10, 03:38:04,VALID,1009.39,VALID,0,VALID,96.0387,VALID,0,VALID,24.1014,VALID,293,VALID,0,
2009-10-10, 03:39:04,VALID,1009.39,VALID,0,VALID,96.0235,VALID,0,VALID,24.1032,VALID,293,VALID,0.152344,
2009-10-10, 03:40:04,VALID,1009.33,VALID,0,VALID,96.0082,VALID,0,VALID,24.1227,VALID,293,VALID,0.222656,
2009-10-10, 03:41:04,VALID,1009.34,VALID,0,VALID,96.0235,VALID,0,VALID,24.144,VALID,293,VALID,0.139844,
2009-10-10, 03:42:04,VALID,1009.3,VALID,0,VALID,96.0387,VALID,0,VALID,24.1635,VALID,293,VALID,0.492578,
2009-10-10, 03:43:04,VALID,1009.31,VALID,0,VALID,96.0616,VALID,0,VALID,24.1032,VALID,68,VALID,0.586328,
2009-10-10, 03:44:04,VALID,1009.33,VALID,0,VALID,96.0845,VALID,0,VALID,24.0837,VALID,68,VALID,0.542578,
2009-10-10, 03:45:04,VALID,1009.32,VALID,0,VALID,96.0692,VALID,0,VALID,24.0856,VALID,68,VALID,0.409766,
2009-10-10, 03:46:04,VALID,1009.34,VALID,0,VALID,96.054,VALID,0,VALID,24.1051,VALID,68,VALID,0.480859,
2009-10-10, 03:47:04,VALID,1009.33,VALID,0,VALID,96.054,VALID,0,VALID,24.0837,VALID,68,VALID,0.103516,
2009-10-10, 03:48:04,VALID,1009.39,VALID,0,VALID,96.0387,VALID,0,VALID,24.0837,VALID,68,VALID,0.130859,
2009-10-10, 03:49:04,VALID,1009.4,VALID,0,VALID,96.0311,VALID,0,VALID,24.0837,VALID,68,VALID,0,
2009-10-10, 03:50:04,VALID,1009.42,VALID,0,VALID,96.0464,VALID,0,VALID,24.0643,VALID,68,VALID,0,
2009-10-10, 03:51:04,VALID,1009.46,VALID,0,VALID,96.0387,VALID,0,VALID,24.0448,VALID,68,VALID,0,
2009-10-10, 03:52:04,VALID,1009.46,VALID,0,VALID,96.0311,VALID,0,VALID,24.0643,VALID,67,VALID,0,
2009-10-10, 03:53:04,VALID,1009.49,VALID,0,VALID,96.0387,VALID,0,VALID,24.0837,VALID,68,VALID,0,
2009-10-10, 03:54:04,VALID,1009.54,VALID,0,VALID,96.0387,VALID,0,VALID,24.0856,VALID,68,VALID,0,
2009-10-10, 03:55:04,VALID,1009.55,VALID,0,VALID,96.0311,VALID,0,VALID,24.0837,VALID,67,VALID,0,